Terminal Aerodrome Forecast
Issued by NWS Pittsburgh, PA

Current Version | Previous Version | Graphics & Text | Print | Product List | Glossary On
Versions: 1 2 3 4 5 6 7 8 9 10 11 12 13 14 15 16 17 18 19 20 21 22 23 24 25 26 27 28 29 30
000
FTUS41 KPBZ 051720
TAFPIT
TAF
KPIT 051720Z 0518/0624 24004KT P6SM BKN100
     FM052100 25004KT P6SM VCSH BKN035
     FM060000 VRB03KT P6SM BKN080
     FM061500 26008KT P6SM BKN040=

USA.gov is the U.S. government's official web portal to all federal, state and local government web resources and services.